Columbia Airport, CA

8:54 PM PDT on October 23, 2019 (GMT -0700)
Columbia Airport

Weather History for KO22 - August, 2019

Change the Weather History Date:

Wednesday, August 21, 2019

  Actual Average (WUND) Record (WUND)
Temperature  
Mean Temperature 75 °F -  
Max Temperature 93 °F - - (-1)
Min Temperature 57 °F - - (-1)
Cooling Degree Days 10    
Growing Degree Days 25 (Base 50)    
Moisture  
Dew Point 50 °F    
Average Humidity 45    
Maximum Humidity 88    
Minimum Humidity 17    
Precipitation  
Precipitation 0.00 in - - ()
Sea Level Pressure  
Sea Level Pressure 29.97 in    
Wind  
Wind Speed 2 mph (SW)    
Max Wind Speed 10 mph    
Max Gust Speed 14 mph    
Visibility 10 miles    
Events      
Averages and records for this station are not official NWS values.
T = Trace of Precipitation, MM = Missing Value Source: NWS Daily Summary

Daily Weather History Graph

Daily Weather History Graph

Search for Another Location

Airport or City:

Astronomy

Aug. 21, 2019 Rise Set
Actual Time 6:21 AM PDT 7:47 PM PDT
Civil Twilight 5:54 AM PDT 8:14 PM PDT
Nautical Twilight 5:21 AM PDT 8:47 PM PDT
Astronomical Twilight 4:46 AM PDT 9:22 PM PDT
Moon 11:12 PM PDT (8/21) 11:57 AM PDT (8/21)
Length of Visible Light 14h 20m
Length of Day
13h 25m
Waning Gibbous, 68% of the Moon is Illuminated
Aug 21
Waning Gibbous
Aug 23
Last Quarter
Aug 30
New
Sep 5
First Quarter
Sep 13
Full

Hourly Weather History & Observations

Time (PDT) Temp. Dew Point Humidity Pressure Visibility Wind Dir Wind Speed Gust Speed Precip Events Conditions
12:15 AM 64.4 °F 53.6 °F 68% 30.01 in 10.0 mi Calm Calm - N/A   Clear
12:35 AM 62.6 °F 53.6 °F 72% 30.01 in 10.0 mi Calm Calm - N/A   Clear
12:55 AM 62.6 °F 53.6 °F 72% 30.01 in 10.0 mi Calm Calm - N/A   Clear
1:15 AM 62.6 °F 53.6 °F 72% 30.00 in 10.0 mi Calm Calm - N/A   Clear
1:35 AM 62.6 °F 53.6 °F 72% 30.00 in 10.0 mi Calm Calm - N/A   Clear
1:55 AM 60.8 °F 53.6 °F 77% 30.00 in 10.0 mi Calm Calm - N/A   Clear
2:15 AM 62.6 °F 53.6 °F 72% 29.99 in 10.0 mi Variable 3.5 mph - N/A   Clear
2:55 AM 60.8 °F 53.6 °F 77% 29.99 in 10.0 mi North - - N/A   Clear
3:15 AM 60.8 °F 53.6 °F 77% 29.99 in 10.0 mi Calm Calm - N/A   Clear
3:35 AM 60.8 °F 53.6 °F 77% 29.99 in 10.0 mi Calm Calm - N/A   Clear
4:15 AM 60.8 °F 53.6 °F 77% 29.99 in 10.0 mi Calm Calm - N/A   Partly Cloudy
4:55 AM 59.0 °F 53.6 °F 82% 29.98 in 10.0 mi Calm Calm - N/A   Partly Cloudy
5:15 AM 59.0 °F 53.6 °F 82% 29.99 in 10.0 mi Calm Calm - N/A   Partly Cloudy
5:35 AM 59.0 °F 53.6 °F 82% 29.99 in 10.0 mi Calm Calm - N/A   Scattered Clouds
5:55 AM 57.2 °F 53.6 °F 88% 29.99 in 10.0 mi Calm Calm - N/A   Scattered Clouds
6:15 AM 59.0 °F 53.6 °F 82% 29.99 in 10.0 mi Calm Calm - N/A   Partly Cloudy
6:35 AM 59.0 °F 51.8 °F 77% 29.99 in 10.0 mi Calm Calm - N/A   Clear
7:15 AM 59.0 °F 53.6 °F 82% 30.00 in 10.0 mi Calm Calm - N/A   Clear
7:35 AM 62.6 °F 53.6 °F 72% 30.01 in 10.0 mi Calm Calm - N/A   Clear
7:55 AM 66.2 °F 55.4 °F 68% 30.01 in 10.0 mi Calm Calm - N/A   Clear
8:15 AM 68.0 °F 55.4 °F 64% 30.01 in 10.0 mi Calm Calm - N/A   Clear
8:35 AM 71.6 °F 55.4 °F 57% 30.01 in - Calm Calm - N/A   Clear
8:55 AM 75.2 °F 53.6 °F 47% 30.01 in 10.0 mi Calm Calm - N/A   Clear
9:15 AM 78.8 °F 51.8 °F 39% 30.01 in 10.0 mi Calm Calm - N/A   Clear
9:35 AM 80.6 °F 44.6 °F 28% 30.02 in 10.0 mi Calm Calm - N/A   Clear
9:55 AM 82.4 °F 42.8 °F 25% 30.02 in 10.0 mi Variable 4.6 mph - N/A   Clear
10:15 AM 82.4 °F 46.4 °F 28% 30.01 in 10.0 mi Calm Calm - N/A   Clear
10:35 AM 86.0 °F 46.4 °F 25% 30.01 in 10.0 mi Calm Calm - N/A   Clear
10:55 AM 87.8 °F 46.4 °F 24% 30.01 in 10.0 mi SW 5.8 mph - N/A   Clear
11:15 AM 87.8 °F 46.4 °F 24% 30.00 in 10.0 mi Variable 3.5 mph - N/A   Clear
11:35 AM 87.8 °F 48.2 °F 25% 30.00 in 10.0 mi SW 5.8 mph - N/A   Clear
11:55 AM 89.6 °F 50.0 °F 26% 30.00 in 10.0 mi Variable 4.6 mph - N/A   Clear
12:15 PM 89.6 °F 48.2 °F 24% 29.99 in 10.0 mi Variable 5.8 mph - N/A   Clear
12:35 PM 89.6 °F 46.4 °F 22% 29.99 in 10.0 mi Variable 4.6 mph - N/A   Clear
12:55 PM 91.4 °F 44.6 °F 20% 29.98 in 10.0 mi Variable 6.9 mph - N/A   Clear
1:15 PM 91.4 °F 44.6 °F 20% 29.97 in 10.0 mi Variable 6.9 mph - N/A   Clear
1:35 PM 91.4 °F 44.6 °F 20% 29.97 in 10.0 mi Variable 5.8 mph 13.8 mph N/A   Clear
1:55 PM 93.2 °F 42.8 °F 17% 29.97 in 10.0 mi Variable 8.1 mph - N/A   Clear
2:15 PM 91.4 °F 44.6 °F 20% 29.97 in 10.0 mi Variable 6.9 mph - N/A   Clear
2:35 PM 93.2 °F 44.6 °F 19% 29.96 in 10.0 mi WSW 9.2 mph - N/A   Clear
2:55 PM 93.2 °F 44.6 °F 19% 29.96 in 10.0 mi Variable 6.9 mph - N/A   Clear
3:15 PM 93.2 °F 42.8 °F 17% 29.96 in 10.0 mi Variable 9.2 mph - N/A   Clear
3:35 PM 93.2 °F 42.8 °F 17% 29.95 in 10.0 mi WSW 10.4 mph - N/A   Clear
3:55 PM 93.2 °F 42.8 °F 17% 29.94 in 10.0 mi Variable 6.9 mph 12.7 mph N/A   Clear
4:15 PM 91.4 °F 46.4 °F 21% 29.94 in 10.0 mi Variable 6.9 mph 12.7 mph N/A   Clear
4:35 PM 91.4 °F 46.4 °F 21% 29.93 in 10.0 mi Variable 9.2 mph - N/A   Clear
4:55 PM 91.4 °F 46.4 °F 21% 29.93 in 10.0 mi Variable 8.1 mph 13.8 mph N/A   Clear
5:15 PM 91.4 °F 46.4 °F 21% 29.92 in 10.0 mi Variable 5.8 mph - N/A   Clear
5:35 PM 91.4 °F 46.4 °F 21% 29.92 in 10.0 mi Variable 8.1 mph - N/A   Clear
5:55 PM 89.6 °F 46.4 °F 22% 29.92 in 10.0 mi WSW 6.9 mph - N/A   Clear
6:15 PM 87.8 °F 50.0 °F 27% 29.91 in 10.0 mi Variable 4.6 mph - N/A   Clear
6:35 PM 87.8 °F 48.2 °F 25% 29.91 in 10.0 mi Variable 5.8 mph - N/A   Clear
6:55 PM 87.8 °F 50.0 °F 27% 29.91 in 10.0 mi Variable 4.6 mph - N/A   Clear
7:15 PM 86.0 °F 51.8 °F 31% 29.91 in 10.0 mi SW 5.8 mph - N/A   Clear
7:35 PM 82.4 °F 51.8 °F 35% 29.92 in 10.0 mi Variable 4.6 mph - N/A   Clear
7:55 PM 80.6 °F 51.8 °F 37% 29.92 in 10.0 mi Variable 4.6 mph - N/A   Clear
8:15 PM 80.6 °F 51.8 °F 37% 29.92 in 10.0 mi Variable 4.6 mph - N/A   Clear
8:35 PM 77.0 °F 51.8 °F 41% 29.92 in 10.0 mi Calm Calm - N/A   Clear
8:55 PM 77.0 °F 51.8 °F 41% 29.92 in 10.0 mi Variable 4.6 mph - N/A   Clear
9:15 PM 77.0 °F 51.8 °F 41% 29.92 in 10.0 mi Calm Calm - N/A   Clear
9:35 PM 77.0 °F 51.8 °F 41% 29.92 in 10.0 mi Variable 4.6 mph - N/A   Clear
9:55 PM 75.2 °F 51.8 °F 44% 29.92 in 10.0 mi Calm Calm - N/A   Clear
10:15 PM 75.2 °F 53.6 °F 47% 29.92 in 10.0 mi Variable 4.6 mph - N/A   Clear
10:35 PM 71.6 °F 53.6 °F 53% 29.92 in 10.0 mi Calm Calm - N/A   Clear
10:55 PM 69.8 °F 53.6 °F 56% 29.92 in 10.0 mi Calm Calm - N/A   Clear
11:15 PM 68.0 °F 53.6 °F 60% 29.93 in 10.0 mi Calm Calm - N/A   Clear
11:35 PM 68.0 °F 53.6 °F 60% 29.91 in 10.0 mi Calm Calm - N/A   Clear
11:55 PM 68.0 °F 53.6 °F 60% 29.91 in 10.0 mi Calm Calm - N/A   Clear